Home   Weather   Glendale   Past weeks

Flag for USA Past Weather in Glendale, California, USA — Yesterday and Last 2 Weeks

Now
66 °F

Overcast.


Feels Like: 66 °F
Forecast: 56 / 66 °F
Wind: 8 mph from South

Location: Bob Hope Airport

Current Time: May 26, 2017 at 3:40:41 pm

Latest Report: May 26, 2017 at 2:53 pm


Visibility: 10 mi

Pressure: 29.95 "Hg

Humidity: 52%

Dew Point: 48 °F

Location of GlendaleLocation

Past Weather in Glendale — Graph

°F

Glendale Temperature Yesterday

Maximum temperature yesterday: 66 °F (at 3:53 pm)
Minimum temperature yesterday: 58 °F (at 12:53 am)
Average temperature yesterday: 60 °F

High & Low Weather Summary for the Past Weeks

 TemperatureHumidityPressure
High93 °F (May 20, 1:53 pm)90% (May 12, 3:53 am)30.05 "Hg (May 12, 3:53 am)
Low50 °F (May 16, 4:53 am)7% (May 20, 1:53 pm)29.75 "Hg (May 24, 5:53 pm)
Average65 °F56%29.88 "Hg
* Reported May 11 1:53 pm — May 26 1:53 pm, Glendale. Weather by CustomWeather, © 2017

Note: Actual official high and low records may vary slightly from our data, if they occured in-between our weather recording intervals... More about our weather records

Advertising

Glendale Weather History for the Previous 24 Hours

Scroll right to see more
 ConditionsComfort  
Time TempWeatherWind HumidityBarometerVisibility
1:53 pm
Fri, May 26
67 °FMostly cloudy.12 mph53%29.96 "Hg10 mi
12:53 pm66 °FMore clouds than sun.7 mph52%29.96 "Hg10 mi
11:53 am64 °FOvercast.6 mph56%29.96 "Hg10 mi
10:53 am63 °FOvercast.5 mph58%29.95 "Hg10 mi
9:53 am61 °FMore clouds than sun.6 mph65%29.95 "Hg10 mi
7:53 am59 °FMore clouds than sun.6 mph72%29.93 "Hg10 mi
7:08 am60 °FCloudy.6 mph69%29.95 "Hg10 mi
6:53 am59 °FMore clouds than sun.5 mph72%29.92 "Hg10 mi
5:53 am59 °FOvercast.6 mph69%29.90 "Hg10 mi
4:53 am59 °FOvercast.6 mph67%29.90 "Hg10 mi
3:53 am59 °FOvercast.5 mph69%29.89 "Hg10 mi
2:53 am59 °FOvercast.5 mph72%29.89 "Hg10 mi
1:53 am59 °FOvercast.6 mph69%29.89 "Hg10 mi
12:53 am59 °FOvercast.6 mph69%29.89 "Hg10 mi
11:53 pm
Thu, May 25
59 °FOvercast.7 mph69%29.89 "Hg10 mi
10:53 pm59 °FOvercast.6 mph69%29.88 "Hg10 mi
9:53 pm59 °FOvercast.5 mph69%29.86 "Hg10 mi
8:53 pm59 °FOvercast.7 mph69%29.84 "Hg10 mi
7:53 pm60 °FOvercast.8 mph65%29.83 "Hg10 mi
6:53 pm62 °FPartly sunny.13 mph58%29.81 "Hg10 mi
5:53 pm64 °FPartly sunny.9 mph54%29.80 "Hg10 mi
4:53 pm65 °FScattered clouds.9 mph52%29.81 "Hg10 mi
3:53 pm66 °FPartly sunny.10 mph50%29.81 "Hg10 mi
Weather by CustomWeather, © 2017

See weather overviewHow to use our weather pages